Location: Treviso
(45.6669°N, 12.2430°E)
Time: 08:52:55
(UTC+02:00)

ISS - Pass Details

Date: 09 May 2026
Orbit: 414 x 424 km, 51.6° (Epoch: 18 May)

Event Time Altitude Azimuth Distance (km) Brightness Sun altitude
Exits shadow 03:23:57 81° 298° (WNW) 428 -3.9 -19.8°
Maximum altitude 03:24:06 90° 231° (SW) 423 -3.9 -19.8°
Drops below altitude 10° 03:27:28 10° 120° (ESE) 1,496 -0.9 -19.5°
Sets 03:29:33 0° 120° (ESE) 2,359 0.1 -19.3°
